VIR12 KBOS-EGLL

Flight info

Callsign VIR12
Flight time N/A
Altitude 38000
Route CELTK7 CELTK DCT FRILL DCT BRADD DCT JOOPY/M081F380 DCT 49N050W 51N040W 53N030W 54N020W DCT DOGAL DCT BEXET/N0462F380 DCT DEVOL DCT RINUS DCT LIFFY UL975 MALUD Q38 NUGRA
Aircraft A343/H-SDE2E3FGHIJ4J5M1RWXY/LB1D1

Departure

Time 2026-05-04 13:25
Airport Boston Logan International Airport (KBOS)

Arrival

Time N/A
Airport London Heathrow Airport (EGLL)
Time Latitude Longitude Altitude Speed Heading
2026-05-04 12:30 42.36042 -71.01689 30 ft 0 kts 289°
2026-05-04 13:08 42.36039 -71.01677 29 ft 4 kts 291°
2026-05-04 13:08 42.36027 -71.01644 28 ft 4 kts 303°
2026-05-04 13:09 42.36011 -71.01616 29 ft 4 kts 322°
2026-05-04 13:09 42.35988 -71.01602 28 ft 4 kts
2026-05-04 13:09 42.35982 -71.01604 28 ft 0 kts 19°
2026-05-04 13:13 42.35985 -71.01602 28 ft 2 kts 19°
2026-05-04 13:13 42.36006 -71.01592 28 ft 4 kts 19°
2026-05-04 13:13 42.36031 -71.01581 29 ft 5 kts 19°
2026-05-04 13:14 42.36075 -71.01559 28 ft 8 kts 19°
2026-05-04 13:14 42.36124 -71.01536 29 ft 7 kts 19°
2026-05-04 13:14 42.36170 -71.01514 29 ft 7 kts 19°
2026-05-04 13:14 42.36214 -71.01492 29 ft 7 kts 19°
2026-05-04 13:15 42.36256 -71.01473 29 ft 6 kts 19°
2026-05-04 13:15 42.36305 -71.01449 28 ft 8 kts 19°
2026-05-04 13:15 42.36366 -71.01419 29 ft 10 kts 20°
2026-05-04 13:15 42.36437 -71.01382 29 ft 11 kts 21°
2026-05-04 13:16 42.36505 -71.01342 28 ft 10 kts 25°
2026-05-04 13:16 42.36570 -71.01302 29 ft 10 kts 24°
2026-05-04 13:16 42.36633 -71.01274 29 ft 10 kts 16°
2026-05-04 13:16 42.36708 -71.01248 29 ft 12 kts 11°
2026-05-04 13:17 42.36778 -71.01268 29 ft 10 kts 329°
2026-05-04 13:17 42.36841 -71.01281 29 ft 9 kts 27°
2026-05-04 13:17 42.36890 -71.01222 29 ft 10 kts 42°
2026-05-04 13:17 42.36944 -71.01157 29 ft 11 kts 40°
2026-05-04 13:18 42.37012 -71.01097 29 ft 12 kts 28°
2026-05-04 13:18 42.37090 -71.01044 29 ft 13 kts 25°
2026-05-04 13:18 42.37178 -71.00987 29 ft 15 kts 25°
2026-05-04 13:18 42.37272 -71.00926 29 ft 16 kts 25°
2026-05-04 13:19 42.37374 -71.00872 29 ft 16 kts 18°
2026-05-04 13:19 42.37482 -71.00820 29 ft 16 kts 20°
2026-05-04 13:19 42.37588 -71.00769 29 ft 16 kts 19°
2026-05-04 13:19 42.37688 -71.00722 29 ft 15 kts 19°
2026-05-04 13:20 42.37762 -71.00676 29 ft 7 kts 47°
2026-05-04 13:20 42.37769 -71.00625 29 ft 0 kts 96°
2026-05-04 13:21 42.37767 -71.00615 29 ft 3 kts 104°
2026-05-04 13:21 42.37757 -71.00567 29 ft 6 kts 105°
2026-05-04 13:22 42.37742 -71.00522 29 ft 4 kts 130°
2026-05-04 13:22 42.37719 -71.00511 29 ft 3 kts 176°
2026-05-04 13:22 42.37691 -71.00522 29 ft 5 kts 199°
2026-05-04 13:22 42.37680 -71.00528 29 ft 0 kts 199°
2026-05-04 13:24 42.37662 -71.00536 28 ft 10 kts 199°
2026-05-04 13:24 42.37426 -71.00650 32 ft 66 kts 200°
2026-05-04 13:24 42.36815 -71.00945 29 ft 121 kts 199°
2026-05-04 13:25 42.34951 -71.01906 875 ft 143 kts 206°
2026-05-04 13:25 42.33933 -71.02172 1296 ft 168 kts 181°
2026-05-04 13:25 42.32824 -71.01258 1384 ft 211 kts 131°
2026-05-04 13:25 42.32134 -70.99404 1628 ft 231 kts 116°
2026-05-04 13:26 42.31593 -70.97304 1983 ft 242 kts 111°
2026-05-04 13:26 42.31151 -70.95063 2415 ft 253 kts 105°
2026-05-04 13:26 42.30865 -70.92630 2688 ft 272 kts 97°
2026-05-04 13:26 42.30825 -70.89997 3046 ft 286 kts 87°
2026-05-04 13:27 42.31099 -70.87307 3581 ft 292 kts 77°
2026-05-04 13:27 42.31699 -70.84661 4133 ft 297 kts 66°
2026-05-04 13:27 42.32594 -70.82161 4714 ft 300 kts 57°
2026-05-04 13:27 42.33644 -70.79712 5377 ft 301 kts 57°
2026-05-04 13:28 42.34707 -70.77254 6019 ft 303 kts 57°
2026-05-04 13:28 42.35791 -70.74788 6589 ft 307 kts 56°
2026-05-04 13:28 42.36897 -70.72307 7199 ft 309 kts 56°
2026-05-04 13:28 42.38020 -70.69812 7816 ft 312 kts 56°
2026-05-04 13:29 42.39160 -70.67293 8394 ft 315 kts 55°
2026-05-04 13:29 42.40314 -70.64747 8976 ft 318 kts 55°
2026-05-04 13:29 42.41463 -70.62212 9517 ft 322 kts 55°
2026-05-04 13:29 42.42636 -70.59618 10060 ft 325 kts 55°
2026-05-04 13:30 42.43835 -70.56966 10336 ft 337 kts 55°
2026-05-04 13:30 42.45084 -70.54205 10569 ft 350 kts 56°
2026-05-04 13:30 42.46376 -70.51341 10799 ft 362 kts 55°
2026-05-04 13:30 42.47710 -70.48380 11046 ft 374 kts 56°
2026-05-04 13:31 42.49087 -70.45318 11272 ft 386 kts 56°
2026-05-04 13:31 42.50499 -70.42172 11494 ft 396 kts 56°
2026-05-04 13:31 42.51945 -70.38944 11861 ft 403 kts 56°
2026-05-04 13:31 42.53409 -70.35669 12279 ft 408 kts 56°
2026-05-04 13:32 42.54882 -70.32369 12753 ft 411 kts 56°
2026-05-04 13:32 42.56360 -70.29055 13267 ft 413 kts 55°
2026-05-04 13:32 42.57851 -70.25711 13773 ft 415 kts 55°
2026-05-04 13:32 42.59353 -70.22340 14208 ft 418 kts 55°
2026-05-04 13:33 42.60838 -70.19003 14668 ft 420 kts 55°
2026-05-04 13:33 42.62356 -70.15590 15107 ft 423 kts 55°
2026-05-04 13:33 42.63878 -70.12164 15546 ft 425 kts 55°
2026-05-04 13:33 42.65412 -70.08710 16012 ft 428 kts 55°
2026-05-04 13:34 42.66954 -70.05230 16487 ft 430 kts 55°
2026-05-04 13:34 42.68504 -70.01728 16939 ft 433 kts 55°
2026-05-04 13:34 42.70060 -69.98209 17394 ft 436 kts 55°
2026-05-04 13:34 42.71628 -69.94660 17840 ft 438 kts 55°
2026-05-04 13:35 42.73203 -69.91090 18271 ft 441 kts 55°
2026-05-04 13:35 42.76373 -69.83889 19036 ft 446 kts 55°
2026-05-04 13:35 42.77969 -69.80258 19451 ft 447 kts 56°
2026-05-04 13:36 42.79547 -69.76661 19839 ft 450 kts 56°
2026-05-04 13:36 42.81160 -69.72982 20207 ft 453 kts 56°
2026-05-04 13:36 42.82779 -69.69286 20578 ft 455 kts 56°
2026-05-04 13:36 42.84408 -69.65560 20948 ft 458 kts 56°
2026-05-04 13:37 42.86042 -69.61819 21304 ft 460 kts 56°
2026-05-04 13:37 42.87685 -69.58053 21667 ft 462 kts 56°
2026-05-04 13:37 42.89332 -69.54271 22010 ft 465 kts 56°
2026-05-04 13:37 42.90428 -69.51754 22254 ft 466 kts 56°
2026-05-04 13:38 42.92622 -69.46704 22760 ft 468 kts 56°
2026-05-04 13:38 42.94286 -69.42869 23102 ft 471 kts 56°
2026-05-04 13:38 42.95957 -69.39013 23426 ft 473 kts 56°
2026-05-04 13:38 42.97633 -69.35141 23703 ft 475 kts 56°
2026-05-04 13:39 42.99323 -69.31230 23963 ft 478 kts 56°
2026-05-04 13:39 43.01014 -69.27314 24247 ft 480 kts 57°
2026-05-04 13:39 43.02714 -69.23368 24520 ft 482 kts 57°
2026-05-04 13:39 43.04416 -69.19414 24787 ft 484 kts 57°
2026-05-04 13:40 43.06125 -69.15441 25074 ft 486 kts 56°
2026-05-04 13:40 43.07839 -69.11446 25312 ft 488 kts 56°
2026-05-04 13:40 43.09542 -69.07475 25573 ft 490 kts 56°
2026-05-04 13:40 43.11267 -69.03445 25816 ft 492 kts 56°
2026-05-04 13:41 43.12998 -68.99398 26052 ft 494 kts 56°
2026-05-04 13:41 43.14734 -68.95332 26303 ft 496 kts 57°
2026-05-04 13:41 43.16472 -68.91254 26548 ft 497 kts 57°
2026-05-04 13:42 43.19971 -68.83030 27029 ft 501 kts 56°
2026-05-04 13:42 43.21727 -68.78892 27246 ft 503 kts 56°
2026-05-04 13:42 43.23496 -68.74720 27461 ft 505 kts 57°
2026-05-04 13:42 43.24668 -68.71953 27609 ft 506 kts 57°
2026-05-04 13:43 43.27011 -68.66412 27893 ft 508 kts 57°
2026-05-04 13:43 43.28789 -68.62199 28113 ft 509 kts 57°
2026-05-04 13:43 43.30567 -68.57980 28315 ft 511 kts 57°
2026-05-04 13:43 43.32350 -68.53743 28520 ft 513 kts 57°
2026-05-04 13:44 43.33532 -68.50933 28691 ft 513 kts 57°
2026-05-04 13:44 43.35315 -68.46685 28987 ft 513 kts 57°
2026-05-04 13:44 43.37095 -68.42437 29267 ft 513 kts 57°
2026-05-04 13:44 43.38872 -68.38190 29534 ft 512 kts 57°
2026-05-04 13:45 43.40647 -68.33943 29811 ft 512 kts 57°
2026-05-04 13:45 43.42424 -68.29687 30051 ft 512 kts 57°
2026-05-04 13:45 43.44199 -68.25428 30242 ft 513 kts 57°
2026-05-04 13:45 43.45973 -68.21164 30449 ft 513 kts 57°
2026-05-04 13:46 43.47750 -68.16888 30650 ft 513 kts 57°
2026-05-04 13:46 43.49499 -68.12673 30826 ft 514 kts 57°
2026-05-04 13:46 43.51268 -68.08402 30995 ft 514 kts 57°
2026-05-04 13:46 43.53042 -68.04116 31156 ft 515 kts 57°
2026-05-04 13:47 43.54815 -67.99823 31311 ft 516 kts 57°
2026-05-04 13:47 43.56593 -67.95514 31495 ft 516 kts 57°
2026-05-04 13:47 43.58365 -67.91211 31656 ft 517 kts 57°
2026-05-04 13:47 43.60142 -67.86889 31863 ft 517 kts 57°
2026-05-04 13:48 43.61912 -67.82576 32050 ft 516 kts 58°
2026-05-04 13:48 43.63684 -67.78255 32196 ft 517 kts 58°
2026-05-04 13:48 43.65458 -67.73922 32336 ft 518 kts 58°
2026-05-04 13:48 43.67207 -67.69642 32486 ft 518 kts 58°
2026-05-04 13:49 43.68980 -67.65300 32631 ft 519 kts 58°
2026-05-04 13:49 43.70753 -67.60949 32774 ft 519 kts 58°
2026-05-04 13:49 43.72531 -67.56580 32944 ft 520 kts 58°
2026-05-04 13:49 43.74303 -67.52217 33104 ft 520 kts 58°
2026-05-04 13:50 43.76071 -67.47859 33229 ft 520 kts 58°
2026-05-04 13:50 43.77847 -67.43474 33316 ft 522 kts 58°
2026-05-04 13:50 43.81384 -67.34722 33510 ft 524 kts 58°
2026-05-04 13:51 43.83162 -67.30313 33652 ft 524 kts 58°
2026-05-04 13:51 43.84938 -67.25899 33782 ft 525 kts 59°
2026-05-04 13:51 43.86713 -67.21482 33936 ft 525 kts 59°
2026-05-04 13:51 43.88486 -67.17064 34050 ft 524 kts 59°
2026-05-04 13:52 43.92030 -67.08212 34255 ft 525 kts 59°
2026-05-04 13:52 43.93799 -67.03783 34360 ft 525 kts 59°
2026-05-04 13:53 43.97333 -66.94915 34569 ft 525 kts 59°
2026-05-04 13:53 43.99097 -66.90477 34700 ft 524 kts 59°
2026-05-04 13:53 44.00837 -66.86092 34837 ft 523 kts 59°
2026-05-04 13:54 44.04350 -66.77222 35015 ft 524 kts 59°
2026-05-04 13:54 44.06102 -66.72787 35090 ft 524 kts 59°
2026-05-04 13:54 44.09613 -66.63879 35268 ft 524 kts 59°
2026-05-04 13:55 44.11364 -66.59426 35369 ft 524 kts 60°
2026-05-04 13:55 44.14848 -66.50545 35628 ft 522 kts 60°
2026-05-04 13:55 44.16584 -66.46108 35681 ft 522 kts 60°
2026-05-04 13:56 44.20036 -66.37266 35825 ft 523 kts 60°
2026-05-04 13:56 44.23509 -66.28343 35967 ft 523 kts 60°
2026-05-04 13:57 44.25242 -66.23878 36016 ft 523 kts 60°
2026-05-04 13:58 44.32173 -66.05957 36280 ft 524 kts 60°
2026-05-04 13:58 44.35624 -65.96989 36432 ft 524 kts 60°
2026-05-04 13:58 44.37350 -65.92495 36522 ft 524 kts 60°
2026-05-04 13:59 44.39068 -65.88013 36684 ft 521 kts 60°
2026-05-04 13:59 44.40781 -65.83536 36750 ft 522 kts 60°
2026-05-04 14:00 44.45907 -65.70099 36814 ft 524 kts 60°
2026-05-04 14:00 44.51055 -65.56537 36865 ft 528 kts 60°
2026-05-04 14:01 44.54478 -65.47483 36955 ft 528 kts 61°
2026-05-04 14:02 44.59631 -65.33798 37075 ft 529 kts 61°
2026-05-04 14:02 44.63063 -65.24645 37140 ft 530 kts 61°
2026-05-04 14:02 44.64779 -65.20057 37262 ft 529 kts 61°
2026-05-04 14:03 44.66489 -65.15477 37313 ft 529 kts 61°
2026-05-04 14:03 44.69913 -65.06287 37319 ft 531 kts 61°
2026-05-04 14:04 44.75023 -64.92513 37415 ft 532 kts 61°
2026-05-04 14:04 44.78428 -64.83294 37579 ft 530 kts 61°
2026-05-04 14:05 44.83528 -64.69430 37614 ft 532 kts 61°
2026-05-04 14:06 44.86925 -64.60156 37673 ft 533 kts 61°
2026-05-04 14:06 44.90321 -64.50851 37720 ft 533 kts 62°
2026-05-04 14:07 44.93714 -64.41525 37724 ft 535 kts 62°
2026-05-04 14:07 44.97108 -64.32166 37719 ft 535 kts 62°
2026-05-04 14:08 45.00469 -64.22863 37709 ft 534 kts 62°
2026-05-04 14:08 45.03843 -64.13492 37696 ft 534 kts 62°
2026-05-04 14:09 45.08884 -63.99432 37689 ft 534 kts 62°
2026-05-04 14:10 45.13883 -63.85415 37686 ft 534 kts 62°
2026-05-04 14:10 45.17225 -63.76007 37674 ft 534 kts 63°
2026-05-04 14:11 45.20555 -63.66597 37659 ft 534 kts 63°
2026-05-04 14:11 45.25545 -63.52435 37648 ft 534 kts 63°
2026-05-04 14:12 45.28859 -63.42987 37645 ft 535 kts 63°
2026-05-04 14:13 45.33802 -63.28834 37636 ft 535 kts 63°
2026-05-04 14:13 45.37103 -63.19342 37626 ft 535 kts 63°
2026-05-04 14:14 45.40392 -63.09849 37616 ft 535 kts 63°
2026-05-04 14:14 45.45315 -62.95579 37599 ft 535 kts 63°
2026-05-04 14:15 45.51856 -62.76499 37590 ft 538 kts 63°
2026-05-04 14:16 45.56758 -62.62107 37579 ft 537 kts 64°
2026-05-04 14:17 45.61621 -62.47754 37579 ft 537 kts 64°
2026-05-04 14:18 45.66483 -62.33326 37556 ft 536 kts 64°
2026-05-04 14:19 45.72929 -62.14072 37552 ft 537 kts 64°
2026-05-04 14:19 45.76152 -62.04394 37548 ft 537 kts 64°
2026-05-04 14:20 45.79338 -61.94791 37547 ft 536 kts 64°
2026-05-04 14:20 45.82533 -61.85126 37548 ft 536 kts 64°
2026-05-04 14:21 45.87309 -61.70607 37525 ft 536 kts 64°
2026-05-04 14:21 45.90481 -61.60923 37517 ft 537 kts 65°
2026-05-04 14:22 45.93655 -61.51195 37487 ft 539 kts 65°
2026-05-04 14:22 45.96831 -61.41421 37487 ft 540 kts 65°
2026-05-04 14:23 46.01558 -61.26810 37489 ft 538 kts 65°
2026-05-04 14:24 46.04709 -61.17025 37454 ft 539 kts 65°
2026-05-04 14:24 46.07854 -61.07219 37453 ft 539 kts 65°
2026-05-04 14:25 46.10991 -60.97400 37428 ft 539 kts 65°
2026-05-04 14:25 46.15660 -60.82720 37411 ft 538 kts 65°
2026-05-04 14:26 46.18771 -60.72892 37395 ft 538 kts 65°
2026-05-04 14:26 46.21879 -60.63034 37395 ft 538 kts 66°
2026-05-04 14:27 46.24973 -60.53184 37374 ft 538 kts 66°
2026-05-04 14:27 46.28036 -60.43395 37359 ft 535 kts 66°
2026-05-04 14:28 46.31082 -60.33621 37365 ft 533 kts 66°
2026-05-04 14:28 46.34138 -60.23778 37361 ft 532 kts 66°
2026-05-04 14:29 46.40168 -60.04240 37353 ft 533 kts 66°
2026-05-04 14:30 46.43175 -59.94442 37326 ft 532 kts 66°
2026-05-04 14:31 46.47681 -59.79690 37307 ft 532 kts 67°
2026-05-04 14:32 46.53144 -59.61684 37300 ft 531 kts 67°
2026-05-04 14:32 46.56590 -59.50258 37290 ft 531 kts 67°
2026-05-04 14:33 46.59075 -59.41986 37295 ft 533 kts 67°
2026-05-04 14:33 46.62019 -59.32153 37288 ft 535 kts 68°
2026-05-04 14:34 46.64986 -59.22202 37304 ft 536 kts 68°
2026-05-04 14:34 46.67942 -59.12243 37288 ft 535 kts 68°
2026-05-04 14:35 46.70891 -59.02276 37286 ft 535 kts 68°
2026-05-04 14:35 46.73827 -58.92309 37290 ft 535 kts 68°
2026-05-04 14:36 46.76757 -58.82322 37253 ft 536 kts 68°
2026-05-04 14:36 46.79682 -58.72312 37277 ft 537 kts 68°
2026-05-04 14:37 46.82607 -58.62261 37276 ft 538 kts 68°
2026-05-04 14:37 46.85509 -58.52250 37261 ft 538 kts 69°
2026-05-04 14:38 46.88411 -58.42197 37269 ft 537 kts 69°
2026-05-04 14:38 46.91309 -58.32114 37248 ft 537 kts 69°
2026-05-04 14:39 46.94194 -58.22036 37235 ft 537 kts 69°
2026-05-04 14:39 46.97074 -58.11935 37235 ft 538 kts 69°
2026-05-04 14:40 47.01356 -57.96833 37222 ft 536 kts 70°
2026-05-04 14:40 47.04209 -57.86717 37213 ft 537 kts 69°
2026-05-04 14:41 47.07055 -57.76591 37226 ft 536 kts 69°
2026-05-04 14:42 47.12701 -57.56371 37191 ft 535 kts 71°
2026-05-04 14:42 47.15511 -57.46241 37212 ft 536 kts 71°
2026-05-04 14:43 47.18316 -57.36089 37202 ft 535 kts 70°
2026-05-04 14:43 47.21105 -57.25952 37191 ft 533 kts 70°
2026-05-04 14:44 47.23876 -57.15843 37206 ft 532 kts 71°
2026-05-04 14:44 47.26634 -57.05725 37196 ft 532 kts 71°
2026-05-04 14:45 47.29383 -56.95598 37203 ft 533 kts 70°
2026-05-04 14:45 47.32124 -56.85468 37191 ft 531 kts 71°
2026-05-04 14:46 47.34827 -56.75431 37181 ft 529 kts 71°
2026-05-04 14:46 47.37538 -56.65315 37184 ft 528 kts 71°
2026-05-04 14:47 47.40234 -56.55207 37157 ft 528 kts 71°
2026-05-04 14:47 47.42898 -56.45181 37179 ft 527 kts 72°
2026-05-04 14:48 47.45566 -56.35108 37170 ft 525 kts 72°
2026-05-04 14:48 47.48221 -56.25034 37169 ft 525 kts 72°
2026-05-04 14:49 47.50862 -56.14969 37168 ft 525 kts 72°
2026-05-04 14:49 47.53496 -56.04885 37163 ft 524 kts 72°
2026-05-04 14:50 47.56096 -55.94896 37158 ft 522 kts 72°
2026-05-04 14:50 47.58698 -55.84847 37179 ft 522 kts 73°
2026-05-04 14:51 47.61295 -55.74774 37177 ft 522 kts 73°
2026-05-04 14:51 47.63865 -55.64759 37185 ft 522 kts 73°
2026-05-04 14:52 47.66440 -55.54685 37221 ft 521 kts 73°
2026-05-04 14:52 47.68996 -55.44644 37222 ft 520 kts 73°
2026-05-04 14:53 47.71539 -55.34609 37243 ft 519 kts 73°
2026-05-04 14:53 47.74067 -55.24585 37283 ft 518 kts 74°
2026-05-04 14:54 47.76587 -55.14550 37289 ft 518 kts 74°
2026-05-04 14:54 47.79100 -55.04496 37302 ft 518 kts 74°
2026-05-04 14:55 47.81599 -54.94453 37335 ft 518 kts 74°
2026-05-04 14:55 47.84078 -54.84448 37355 ft 519 kts 74°
2026-05-04 14:56 47.86573 -54.74334 37353 ft 519 kts 75°
2026-05-04 14:56 47.89038 -54.64294 37374 ft 519 kts 75°
2026-05-04 14:57 47.91507 -54.54195 37373 ft 519 kts 75°
2026-05-04 14:57 47.93970 -54.44077 37374 ft 519 kts 75°
2026-05-04 14:58 47.96423 -54.33953 37394 ft 518 kts 75°
2026-05-04 14:58 47.98867 -54.23816 37394 ft 519 kts 75°
2026-05-04 14:59 48.01286 -54.13732 37387 ft 519 kts 75°
2026-05-04 15:00 48.04931 -53.98454 37418 ft 522 kts 75°
2026-05-04 15:00 48.07363 -53.88208 37419 ft 521 kts 75°
2026-05-04 15:01 48.10985 -53.72860 37424 ft 520 kts 75°
2026-05-04 15:01 48.13377 -53.62659 37442 ft 520 kts 75°
2026-05-04 15:02 48.15751 -53.52483 37438 ft 520 kts 76°
2026-05-04 15:02 48.18125 -53.42266 37440 ft 519 kts 76°
2026-05-04 15:03 48.20489 -53.32040 37459 ft 519 kts 76°
2026-05-04 15:03 48.22842 -53.21807 37460 ft 520 kts 76°
2026-05-04 15:04 48.25181 -53.11593 37465 ft 520 kts 76°
2026-05-04 15:04 48.27524 -53.01317 37461 ft 520 kts 76°
2026-05-04 15:05 48.29857 -52.91029 37462 ft 520 kts 76°
2026-05-04 15:05 48.32181 -52.80731 37467 ft 520 kts 76°
2026-05-04 15:06 48.34495 -52.70429 37484 ft 520 kts 76°
2026-05-04 15:07 48.37948 -52.54962 37489 ft 519 kts 76°
2026-05-04 15:07 48.40230 -52.44678 37495 ft 518 kts 77°
2026-05-04 15:08 48.42489 -52.34445 37511 ft 518 kts 77°
2026-05-04 15:08 48.44751 -52.24150 37517 ft 517 kts 77°
2026-05-04 15:09 48.46995 -52.13886 37518 ft 515 kts 77°
2026-05-04 15:09 48.49223 -52.03652 37533 ft 513 kts 77°
2026-05-04 15:10 48.52844 -51.88439 37542 ft 516 kts 73°
2026-05-04 15:11 48.56890 -51.73386 37537 ft 515 kts 73°
2026-05-04 15:11 48.59521 -51.63327 37567 ft 515 kts 74°
2026-05-04 15:12 48.62113 -51.53230 37573 ft 516 kts 74°
2026-05-04 15:12 48.64679 -51.43163 37573 ft 516 kts 74°
2026-05-04 15:13 48.67254 -51.33027 37564 ft 516 kts 75°
2026-05-04 15:13 48.69818 -51.22899 37596 ft 515 kts 75°
2026-05-04 15:14 48.72371 -51.12765 37601 ft 514 kts 75°
2026-05-04 15:14 48.74912 -51.02634 37602 ft 514 kts 75°
2026-05-04 15:15 48.77443 -50.92498 37616 ft 514 kts 75°
2026-05-04 15:15 48.79963 -50.82358 37619 ft 513 kts 75°
2026-05-04 15:16 48.83702 -50.67237 37633 ft 512 kts 76°
2026-05-04 15:17 48.87443 -50.51992 37645 ft 513 kts 76°
2026-05-04 15:17 48.91163 -50.36733 37643 ft 513 kts 76°
2026-05-04 15:18 48.93616 -50.26613 37643 ft 513 kts 76°
2026-05-04 15:19 48.97301 -50.11326 37652 ft 512 kts 76°
2026-05-04 15:19 49.00957 -49.96109 37658 ft 511 kts 76°
2026-05-04 15:20 49.03505 -49.85973 37661 ft 512 kts 75°
2026-05-04 15:20 49.06072 -49.75853 37667 ft 511 kts 76°
2026-05-04 15:21 49.08621 -49.65691 37675 ft 512 kts 76°
2026-05-04 15:22 49.12390 -49.50513 37682 ft 510 kts 77°
2026-05-04 15:22 49.16139 -49.35302 37690 ft 510 kts 77°
2026-05-04 15:23 49.18206 -49.26871 37691 ft 510 kts 77°
2026-05-04 15:23 49.20687 -49.16705 37687 ft 509 kts 77°
2026-05-04 15:24 49.25605 -48.96423 37712 ft 507 kts 77°
2026-05-04 15:25 49.28042 -48.86301 37705 ft 506 kts 77°
2026-05-04 15:26 49.31663 -48.71180 37703 ft 505 kts 78°
2026-05-04 15:26 49.35268 -48.56014 37721 ft 503 kts 78°
2026-05-04 15:27 49.38842 -48.40872 37723 ft 503 kts 78°
2026-05-04 15:28 49.42393 -48.25725 37727 ft 502 kts 78°
2026-05-04 15:29 49.45918 -48.10586 37738 ft 501 kts 79°
2026-05-04 15:30 49.54031 -47.75316 37710 ft 500 kts 79°
2026-05-04 15:31 49.57478 -47.60152 37762 ft 501 kts 79°
2026-05-04 15:32 49.63174 -47.34860 37761 ft 500 kts 79°
2026-05-04 15:34 49.68830 -47.09439 37776 ft 500 kts 79°
2026-05-04 15:34 49.72193 -46.94174 37775 ft 500 kts 79°
2026-05-04 15:35 49.75535 -46.78881 37794 ft 504 kts 79°
2026-05-04 15:36 49.78894 -46.63411 37799 ft 506 kts 78°
2026-05-04 15:36 49.81129 -46.53048 37801 ft 508 kts 78°
2026-05-04 15:37 49.83362 -46.42640 37817 ft 511 kts 78°
2026-05-04 15:37 49.85603 -46.32147 37821 ft 513 kts 78°
2026-05-04 15:38 49.87822 -46.21712 37819 ft 512 kts 78°
2026-05-04 15:38 49.90039 -46.11232 37823 ft 511 kts 78°
2026-05-04 15:39 49.92248 -46.00723 37831 ft 511 kts 78°
2026-05-04 15:40 49.95538 -45.84971 37838 ft 511 kts 78°
2026-05-04 15:40 49.97720 -45.74457 37842 ft 511 kts 78°
2026-05-04 15:41 49.99876 -45.64010 37817 ft 511 kts 77°
2026-05-04 15:41 50.02039 -45.53470 37860 ft 512 kts 77°
2026-05-04 15:42 50.04201 -45.42880 37874 ft 515 kts 77°
2026-05-04 15:42 50.06366 -45.32225 37873 ft 518 kts 77°
2026-05-04 15:43 50.08531 -45.21510 37883 ft 519 kts 78°
2026-05-04 15:43 50.10687 -45.10785 37892 ft 519 kts 77°
2026-05-04 15:44 50.12838 -45.00021 37904 ft 522 kts 77°
2026-05-04 15:44 50.14989 -44.89199 37916 ft 522 kts 77°
2026-05-04 15:45 50.17129 -44.78380 37916 ft 522 kts 78°
2026-05-04 15:45 50.19243 -44.67622 37934 ft 522 kts 77°
2026-05-04 15:46 50.21367 -44.56746 37936 ft 525 kts 77°
2026-05-04 15:46 50.23491 -44.45809 37947 ft 527 kts 77°
2026-05-04 15:47 50.25615 -44.34817 37958 ft 530 kts 77°
2026-05-04 15:47 50.27740 -44.23756 37964 ft 532 kts 76°
2026-05-04 15:48 50.29849 -44.12711 37979 ft 533 kts 76°
2026-05-04 15:48 50.33014 -43.96029 37988 ft 533 kts 76°
2026-05-04 15:49 50.35109 -43.84899 37999 ft 532 kts 76°
2026-05-04 15:49 50.37180 -43.73823 38007 ft 533 kts 76°
2026-05-04 15:50 50.39255 -43.62660 38007 ft 533 kts 76°
2026-05-04 15:50 50.41320 -43.51491 38017 ft 533 kts 76°
2026-05-04 15:51 50.43374 -43.40309 38027 ft 533 kts 75°
2026-05-04 15:51 50.45415 -43.29127 38040 ft 533 kts 75°
2026-05-04 15:52 50.47444 -43.17944 38047 ft 532 kts 75°
2026-05-04 15:52 50.49462 -43.06759 38049 ft 532 kts 75°
2026-05-04 15:53 50.51453 -42.95651 38059 ft 532 kts 75°
2026-05-04 15:53 50.53449 -42.84447 38066 ft 532 kts 75°
2026-05-04 15:54 50.55434 -42.73227 38068 ft 531 kts 75°
2026-05-04 15:54 50.57404 -42.62036 38074 ft 531 kts 75°
2026-05-04 15:55 50.59363 -42.50828 38084 ft 531 kts 75°
2026-05-04 15:55 50.61311 -42.39614 38092 ft 531 kts 75°
2026-05-04 15:56 50.63235 -42.28468 38094 ft 531 kts 75°
2026-05-04 15:56 50.65159 -42.17248 38103 ft 531 kts 75°
2026-05-04 15:57 50.67077 -42.05994 38119 ft 531 kts 75°
2026-05-04 15:57 50.68982 -41.94746 38119 ft 531 kts 75°
2026-05-04 15:58 50.70873 -41.83499 38126 ft 529 kts 75°
2026-05-04 15:58 50.72744 -41.72301 38130 ft 527 kts 75°
2026-05-04 15:59 50.74591 -41.61182 38145 ft 526 kts 75°
2026-05-04 15:59 50.76438 -41.49985 38153 ft 527 kts 75°
2026-05-04 16:00 50.78276 -41.38766 38157 ft 527 kts 75°
2026-05-04 16:00 50.80102 -41.27550 38165 ft 527 kts 75°
2026-05-04 16:01 50.81916 -41.16330 38163 ft 526 kts 75°
2026-05-04 16:01 50.83703 -41.05199 38166 ft 525 kts 75°
2026-05-04 16:02 50.85489 -40.94002 38180 ft 524 kts 74°
2026-05-04 16:03 50.88135 -40.77273 38176 ft 519 kts 74°
2026-05-04 16:03 50.89878 -40.66162 38192 ft 519 kts 74°
2026-05-04 16:04 50.91605 -40.55082 38189 ft 519 kts 74°
2026-05-04 16:04 50.94184 -40.38387 38202 ft 520 kts 74°
2026-05-04 16:05 50.95894 -40.27224 38215 ft 522 kts 74°
2026-05-04 16:06 50.98448 -40.10394 38217 ft 523 kts 74°
2026-05-04 16:07 51.02841 -39.88641 38225 ft 516 kts 64°
2026-05-04 16:08 51.08159 -39.67519 38242 ft 514 kts 64°
2026-05-04 16:09 51.14715 -39.41101 38250 ft 508 kts 63°
2026-05-04 16:10 51.19834 -39.20224 38264 ft 507 kts 64°
2026-05-04 16:11 51.23653 -39.04527 38394 ft 502 kts 64°
2026-05-04 16:11 51.24912 -38.99326 38517 ft 501 kts 63°
2026-05-04 16:12 51.28632 -38.83878 38274 ft 499 kts 63°
2026-05-04 16:12 51.32368 -38.68262 38279 ft 504 kts 63°
2026-05-04 16:13 51.36907 -38.49105 38281 ft 499 kts 63°
2026-05-04 16:14 51.41793 -38.28321 38290 ft 499 kts 63°
2026-05-04 16:16 51.47864 -38.02214 38310 ft 502 kts 63°
2026-05-04 16:17 51.53892 -37.75961 38316 ft 501 kts 63°
2026-05-04 16:18 51.58683 -37.54881 38317 ft 506 kts 63°
2026-05-04 16:19 51.64656 -37.28262 38339 ft 505 kts 64°
2026-05-04 16:20 51.70528 -37.01765 38340 ft 501 kts 64°
2026-05-04 16:22 51.76327 -36.75278 38342 ft 502 kts 64°
2026-05-04 16:23 51.83222 -36.43323 38357 ft 502 kts 64°
2026-05-04 16:25 51.90009 -36.11372 38349 ft 501 kts 65°
2026-05-04 16:26 51.97821 -35.73957 38359 ft 500 kts 65°
2026-05-04 16:28 52.03325 -35.47169 38379 ft 501 kts 66°
2026-05-04 16:29 52.10918 -35.09610 38374 ft 501 kts 66°
2026-05-04 16:31 52.16286 -34.82613 38381 ft 501 kts 67°
2026-05-04 16:32 52.22628 -34.50220 38383 ft 501 kts 68°
2026-05-04 16:33 52.26816 -34.28524 38386 ft 500 kts 68°
2026-05-04 16:34 52.29927 -34.12250 38386 ft 500 kts 68°
2026-05-04 16:35 52.36075 -33.79666 38396 ft 499 kts 69°
2026-05-04 16:36 52.39102 -33.63408 38393 ft 500 kts 69°
2026-05-04 16:37 52.42117 -33.47080 38396 ft 499 kts 70°
2026-05-04 16:38 52.46107 -33.25238 38401 ft 499 kts 70°
2026-05-04 16:39 52.51017 -32.97999 38402 ft 499 kts 71°
2026-05-04 16:40 52.54909 -32.76109 38414 ft 499 kts 71°
2026-05-04 16:41 52.59713 -32.48721 38402 ft 498 kts 71°
2026-05-04 16:43 52.64437 -32.21370 38406 ft 498 kts 72°
2026-05-04 16:43 52.67249 -32.04888 38410 ft 498 kts 72°
2026-05-04 16:45 52.72804 -31.71852 38418 ft 498 kts 72°
2026-05-04 16:46 52.77348 -31.44352 38401 ft 496 kts 72°
2026-05-04 16:47 52.80921 -31.22415 38403 ft 496 kts 72°
2026-05-04 16:48 52.84462 -31.00383 38401 ft 495 kts 73°
2026-05-04 16:49 52.87960 -30.78332 38403 ft 495 kts 73°
2026-05-04 16:50 52.91418 -30.56241 38399 ft 495 kts 73°
2026-05-04 16:51 52.93981 -30.39671 38401 ft 495 kts 74°
2026-05-04 16:52 52.97352 -30.17618 38400 ft 494 kts 74°
2026-05-04 16:53 52.99861 -30.01004 38393 ft 494 kts 74°
2026-05-04 16:54 53.03077 -29.78797 38395 ft 494 kts 75°
2026-05-04 16:55 53.07786 -29.45403 38392 ft 494 kts 75°
2026-05-04 16:56 53.11635 -29.17632 38387 ft 494 kts 76°
2026-05-04 16:57 53.13922 -29.00875 38393 ft 494 kts 76°
2026-05-04 16:58 53.16932 -28.78527 38386 ft 494 kts 76°
2026-05-04 17:00 53.21358 -28.45037 38388 ft 494 kts 76°
2026-05-04 17:01 53.24740 -28.18900 38391 ft 494 kts 77°
2026-05-04 17:02 53.27598 -27.96430 38386 ft 494 kts 77°
2026-05-04 17:03 53.29711 -27.79578 38389 ft 494 kts 77°
2026-05-04 17:03 53.31801 -27.62705 38380 ft 494 kts 77°
2026-05-04 17:04 53.34549 -27.40186 38388 ft 493 kts 77°
2026-05-04 17:05 53.37246 -27.17721 38379 ft 493 kts 77°
2026-05-04 17:06 53.39247 -27.00805 38375 ft 493 kts 78°
2026-05-04 17:07 53.41004 -26.85758 38375 ft 493 kts 78°
2026-05-04 17:07 53.42523 -26.72617 38385 ft 494 kts 78°
2026-05-04 17:08 53.44459 -26.55664 38376 ft 493 kts 78°
2026-05-04 17:09 53.45736 -26.44352 38377 ft 493 kts 78°
2026-05-04 17:09 53.47006 -26.33009 38374 ft 494 kts 78°
2026-05-04 17:10 53.50129 -26.04654 38375 ft 494 kts 78°
2026-05-04 17:11 53.51356 -25.93331 38374 ft 494 kts 78°
2026-05-04 17:12 53.53173 -25.76367 38372 ft 494 kts 79°
2026-05-04 17:13 53.56162 -25.47936 38371 ft 494 kts 79°
2026-05-04 17:14 53.58504 -25.25160 38369 ft 494 kts 79°
2026-05-04 17:15 53.60233 -25.08063 38367 ft 493 kts 79°
2026-05-04 17:16 53.62491 -24.85326 38365 ft 493 kts 79°
2026-05-04 17:17 53.64712 -24.62503 38361 ft 493 kts 79°
2026-05-04 17:18 53.66880 -24.39760 38358 ft 492 kts 79°
2026-05-04 17:19 53.69010 -24.16934 38352 ft 492 kts 80°
2026-05-04 17:20 53.71090 -23.94160 38347 ft 491 kts 80°
2026-05-04 17:20 53.72625 -23.77029 38347 ft 491 kts 80°
2026-05-04 17:21 53.74633 -23.54178 38349 ft 491 kts 80°
2026-05-04 17:22 53.75615 -23.42813 38349 ft 491 kts 80°
2026-05-04 17:23 53.77555 -23.19961 38341 ft 491 kts 81°
2026-05-04 17:24 53.78981 -23.02817 38344 ft 491 kts 81°
2026-05-04 17:25 53.80837 -22.80017 38332 ft 490 kts 81°
2026-05-04 17:26 53.82661 -22.57070 38333 ft 490 kts 81°
2026-05-04 17:27 53.84862 -22.28570 38322 ft 489 kts 81°
2026-05-04 17:28 53.86582 -22.05652 38321 ft 489 kts 81°
2026-05-04 17:29 53.89076 -21.71299 38319 ft 490 kts 82°
2026-05-04 17:31 53.91074 -21.42714 38315 ft 489 kts 82°
2026-05-04 17:32 53.93007 -21.14055 38309 ft 489 kts 82°
2026-05-04 17:33 53.94504 -20.91114 38311 ft 489 kts 82°
2026-05-04 17:34 53.95951 -20.68265 38300 ft 487 kts 83°
2026-05-04 17:35 53.97701 -20.39639 38298 ft 487 kts 83°
2026-05-04 17:36 53.98382 -20.28175 38292 ft 487 kts 83°
2026-05-04 17:36 53.99047 -20.16798 38287 ft 487 kts 83°
2026-05-04 17:37 53.99706 -20.05347 38287 ft 487 kts 83°
2026-05-04 17:37 54.00292 -19.93849 38289 ft 487 kts 86°
2026-05-04 17:38 54.00492 -19.82384 38291 ft 488 kts 88°
2026-05-04 17:38 54.00615 -19.70844 38282 ft 488 kts 88°
2026-05-04 17:39 54.00876 -19.53521 38281 ft 488 kts 87°
2026-05-04 17:39 54.01069 -19.41952 38275 ft 488 kts 87°
2026-05-04 17:40 54.01250 -19.30413 38276 ft 488 kts 88°
2026-05-04 17:40 54.01418 -19.18929 38271 ft 488 kts 88°
2026-05-04 17:41 54.01574 -19.07407 38266 ft 488 kts 88°
2026-05-04 17:41 54.01720 -18.95848 38255 ft 488 kts 88°
2026-05-04 17:42 54.01854 -18.84299 38259 ft 487 kts 88°
2026-05-04 17:42 54.01977 -18.72769 38269 ft 487 kts 88°
2026-05-04 17:43 54.02093 -18.61322 38257 ft 487 kts 88°
2026-05-04 17:43 54.02290 -18.49829 38257 ft 486 kts 87°
2026-05-04 17:44 54.02504 -18.38318 38244 ft 486 kts 87°
2026-05-04 17:44 54.02695 -18.26813 38250 ft 486 kts 87°
2026-05-04 17:45 54.02752 -18.23162 38253 ft 486 kts 87°
2026-05-04 17:45 54.02851 -18.16433 38246 ft 486 kts 87°
2026-05-04 17:46 54.02972 -18.07693 38244 ft 486 kts 87°
2026-05-04 17:46 54.03120 -17.96188 38245 ft 486 kts 88°
2026-05-04 17:47 54.03259 -17.84690 38245 ft 486 kts 88°
2026-05-04 17:47 54.03386 -17.73259 38237 ft 486 kts 88°
2026-05-04 17:48 54.03503 -17.61748 38247 ft 486 kts 88°
2026-05-04 17:48 54.03610 -17.50245 38231 ft 486 kts 88°
2026-05-04 17:49 54.03689 -17.40683 38234 ft 486 kts 88°
2026-05-04 17:49 54.03775 -17.29195 38232 ft 486 kts 88°
2026-05-04 17:50 54.03851 -17.17676 38232 ft 486 kts 88°
2026-05-04 17:50 54.03915 -17.06162 38234 ft 486 kts 88°
2026-05-04 17:51 54.03968 -16.94676 38225 ft 485 kts 89°
2026-05-04 17:51 54.04010 -16.83187 38225 ft 485 kts 89°
2026-05-04 17:52 54.04041 -16.71701 38219 ft 485 kts 89°
2026-05-04 17:52 54.04061 -16.60277 38224 ft 485 kts 89°
2026-05-04 17:53 54.04071 -16.48785 38219 ft 485 kts 89°
2026-05-04 17:53 54.04069 -16.37301 38214 ft 485 kts 89°
2026-05-04 17:54 54.04057 -16.25819 38211 ft 485 kts 89°
2026-05-04 17:54 54.04033 -16.14315 38213 ft 485 kts 89°
2026-05-04 17:55 54.03999 -16.02840 38210 ft 486 kts 89°
2026-05-04 17:55 54.03953 -15.91341 38211 ft 485 kts 89°
2026-05-04 17:56 54.03898 -15.79940 38211 ft 485 kts 90°
2026-05-04 17:56 54.03831 -15.68481 38209 ft 485 kts 90°
2026-05-04 17:57 54.03752 -15.56977 38208 ft 485 kts 90°
2026-05-04 17:57 54.03663 -15.45501 38205 ft 485 kts 90°
2026-05-04 17:58 54.03529 -15.34031 38196 ft 485 kts 91°
2026-05-04 17:58 54.03340 -15.22545 38196 ft 485 kts 91°
2026-05-04 17:59 54.03140 -15.11052 38195 ft 485 kts 91°
2026-05-04 18:00 54.02836 -14.93986 38198 ft 485 kts 91°
2026-05-04 18:00 54.02621 -14.82514 38194 ft 484 kts 91°
2026-05-04 18:01 54.02395 -14.71066 38196 ft 484 kts 91°
2026-05-04 18:01 54.02158 -14.59617 38188 ft 484 kts 91°
2026-05-04 18:02 54.01782 -14.42450 38185 ft 484 kts 91°
2026-05-04 18:02 54.01519 -14.31080 38184 ft 484 kts 91°
2026-05-04 18:03 54.01244 -14.19643 38184 ft 483 kts 92°
2026-05-04 18:03 54.00959 -14.08220 38183 ft 483 kts 92°
2026-05-04 18:04 54.00663 -13.96802 38182 ft 483 kts 92°
2026-05-04 18:05 54.00198 -13.79675 38179 ft 483 kts 92°
2026-05-04 18:05 53.99877 -13.68340 38174 ft 483 kts 92°
2026-05-04 18:06 53.99372 -13.51233 38174 ft 483 kts 92°
2026-05-04 18:06 53.99024 -13.39887 38175 ft 482 kts 92°
2026-05-04 18:07 53.98663 -13.28492 38167 ft 482 kts 92°
2026-05-04 18:07 53.98292 -13.17119 38166 ft 482 kts 93°
2026-05-04 18:08 53.97911 -13.05756 38166 ft 482 kts 93°
2026-05-04 18:08 53.97520 -12.94406 38167 ft 482 kts 93°
2026-05-04 18:09 53.96706 -12.71759 38164 ft 482 kts 93°
2026-05-04 18:10 53.96282 -12.60395 38171 ft 482 kts 93°
2026-05-04 18:10 53.95847 -12.49041 38158 ft 482 kts 93°
2026-05-04 18:11 53.95402 -12.37700 38168 ft 482 kts 94°
2026-05-04 18:11 53.94946 -12.26340 38155 ft 482 kts 94°
2026-05-04 18:12 53.94481 -12.15055 38167 ft 482 kts 94°
2026-05-04 18:12 53.94003 -12.03699 38154 ft 481 kts 94°
2026-05-04 18:13 53.93516 -11.92382 38166 ft 481 kts 94°
2026-05-04 18:14 53.92763 -11.75355 38156 ft 481 kts 94°
2026-05-04 18:14 53.92249 -11.64041 38158 ft 480 kts 94°
2026-05-04 18:15 53.91200 -11.41650 38143 ft 477 kts 94°
2026-05-04 18:16 53.90659 -11.30440 38144 ft 477 kts 94°
2026-05-04 18:16 53.90108 -11.19229 38141 ft 477 kts 94°
2026-05-04 18:17 53.89261 -11.02415 38149 ft 477 kts 94°
2026-05-04 18:18 53.88395 -10.85688 38144 ft 477 kts 95°
2026-05-04 18:18 53.87802 -10.74495 38136 ft 477 kts 95°
2026-05-04 18:19 53.86892 -10.57707 38237 ft 475 kts 95°
2026-05-04 18:19 53.86278 -10.46599 38140 ft 476 kts 95°
2026-05-04 18:20 53.85651 -10.35453 38151 ft 476 kts 95°
2026-05-04 18:20 53.85012 -10.24284 38143 ft 476 kts 95°
2026-05-04 18:21 53.84364 -10.13142 38144 ft 476 kts 95°
2026-05-04 18:21 53.83704 -10.01986 38131 ft 476 kts 95°
2026-05-04 18:22 53.83034 -9.90839 38135 ft 475 kts 95°
2026-05-04 18:22 53.82357 -9.79757 38130 ft 473 kts 95°
2026-05-04 18:23 53.81672 -9.68695 38130 ft 472 kts 95°
2026-05-04 18:23 53.80981 -9.57694 38001 ft 473 kts 95°
2026-05-04 18:24 53.80630 -9.52162 37736 ft 473 kts 95°
2026-05-04 18:24 53.80275 -9.46615 37463 ft 474 kts 95°
2026-05-04 18:24 53.79917 -9.41076 37199 ft 473 kts 95°
2026-05-04 18:24 53.79558 -9.35550 36930 ft 473 kts 95°
2026-05-04 18:25 53.79195 -9.30001 36663 ft 473 kts 95°
2026-05-04 18:25 53.79063 -9.27993 36574 ft 473 kts 95°